Kake, AK

3:26 PM AKDT on July 25, 2017 (GMT -0800)
Kake

Weather History for PAFE - February, 2013

Change the Weather History Date:

Wednesday, February 20, 2013

  Actual Average Record
Temperature  
Mean Temperature 35 °F -  
Max Temperature 37 °F 36 °F 48 °F (1998)
Min Temperature 33 °F 29 °F 21 °F (2001)
Degree Days  
Heating Degree Days 30    
Moisture  
Dew Point 32 °F    
Average Humidity 84    
Maximum Humidity 93    
Minimum Humidity 81    
Precipitation  
Precipitation 0.21 in - - ()
Sea Level Pressure  
Sea Level Pressure 29.49 in    
Wind  
Wind Speed 13 mph (SE)    
Max Wind Speed 21 mph    
Max Gust Speed 29 mph    
Visibility 10 miles    
Events      
Averages and records for this station are not official NWS values.
T = Trace of Precipitation, MM = Missing Value Source: NWS Daily Summary

Daily Weather History Graph

Daily Weather History Graph

Search for Another Location

Airport or City:

Trip Planner

Search our weather history database for the weather conditions in past years. The results will help you decide how hot, cold, wet, or windy it might be!

Date:

Astronomy

Feb. 20, 2013 Rise Set
Actual Time 7:10 AM AKST 5:09 PM AKST
Civil Twilight 6:31 AM AKST 5:48 PM AKST
Nautical Twilight 5:47 AM AKST 6:32 PM AKST
Astronomical Twilight 5:02 AM AKST 7:16 PM AKST
Moon 11:59 AM AKST (2/20) 4:14 AM AKST (2/20)
Length of Visible Light 11h 17m
Length of Day
9h 58m
Waxing Gibbous, 77% of the Moon is Illuminated
Feb 20
Waxing Gibbous
Feb 25
Full
Mar 4
Last Quarter
Mar 11
New
Mar 19
First Quarter

Hourly Weather History & Observations

Time (AKST) Temp. Windchill Dew Point Humidity Pressure Visibility Wind Dir Wind Speed Gust Speed Precip Events Conditions
12:16 AM 37.4 °F 28.5 °F 32.0 °F 81% 29.63 in 10.0 mi ESE 15.0 mph 20.7 mph N/A   Overcast
12:36 AM 37.4 °F 30.3 °F 32.0 °F 81% 29.63 in 9.0 mi ESE 10.4 mph 20.7 mph N/A   Mostly Cloudy
12:56 AM 37.4 °F 28.5 °F 32.0 °F 81% 29.62 in 10.0 mi ESE 15.0 mph 27.6 mph 0.02 in   Overcast
1:16 AM 37.4 °F 26.9 °F 32.0 °F 81% 29.61 in 10.0 mi SE 20.7 mph 28.8 mph N/A   Overcast
1:36 AM 37.4 °F 30.8 °F 32.0 °F 81% 29.60 in 10.0 mi SE 9.2 mph 19.6 mph N/A   Overcast
1:56 AM 37.4 °F 28.5 °F 32.0 °F 81% 29.59 in 10.0 mi SE 15.0 mph 24.2 mph N/A   Overcast
2:16 AM 35.6 °F 25.2 °F 32.0 °F 87% 29.58 in 10.0 mi SE 18.4 mph 23.0 mph N/A   Overcast
2:36 AM 35.6 °F 26.6 °F 30.2 °F 81% 29.57 in 10.0 mi SE 13.8 mph 21.9 mph N/A   Mostly Cloudy
2:56 AM 35.6 °F 26.2 °F 30.2 °F 81% 29.56 in 10.0 mi ESE 15.0 mph 21.9 mph N/A   Overcast
3:16 AM 35.6 °F 25.9 °F 30.2 °F 81% 29.55 in 10.0 mi ESE 16.1 mph 20.7 mph 0.01 in   Overcast
3:36 AM 35.6 °F 26.6 °F 30.2 °F 81% 29.54 in 10.0 mi ESE 13.8 mph 20.7 mph 0.01 in   Overcast
3:56 AM 35.6 °F 27.5 °F 30.2 °F 81% 29.54 in 10.0 mi ESE 11.5 mph - 0.01 in   Overcast
4:16 AM 35.6 °F 27.5 °F 30.2 °F 81% 29.54 in 10.0 mi SE 11.5 mph - N/A   Overcast
4:36 AM 35.6 °F 27.5 °F 30.2 °F 81% 29.54 in 10.0 mi SE 11.5 mph - N/A   Overcast
4:56 AM 35.6 °F 28.6 °F 30.2 °F 81% 29.53 in 10.0 mi SE 9.2 mph 17.3 mph 0.01 in   Overcast
5:16 AM 35.6 °F 27.1 °F 30.2 °F 81% 29.53 in 10.0 mi ESE 12.7 mph 16.1 mph N/A   Overcast
5:36 AM 35.6 °F 26.2 °F 30.2 °F 81% 29.53 in 10.0 mi SE 15.0 mph 20.7 mph 0.01 in   Overcast
5:56 AM 35.6 °F 25.9 °F 32.0 °F 87% 29.54 in 10.0 mi SE 16.1 mph 23.0 mph 0.01 in   Overcast
6:16 AM 35.6 °F 25.9 °F 32.0 °F 87% 29.55 in 10.0 mi SE 16.1 mph 24.2 mph N/A   Overcast
6:36 AM 35.6 °F 26.6 °F 32.0 °F 87% 29.55 in 10.0 mi SE 13.8 mph 19.6 mph N/A   Mostly Cloudy
6:56 AM 35.6 °F 27.1 °F 32.0 °F 87% 29.55 in 10.0 mi SE 12.7 mph 20.7 mph N/A   Mostly Cloudy
7:16 AM 35.6 °F 27.1 °F 30.2 °F 81% 29.55 in 10.0 mi SE 12.7 mph 21.9 mph N/A   Overcast
7:36 AM 35.6 °F 26.6 °F 30.2 °F 81% 29.55 in 10.0 mi SE 13.8 mph 19.6 mph N/A   Overcast
7:56 AM 35.6 °F 26.6 °F 32.0 °F 87% 29.56 in 10.0 mi SE 13.8 mph - N/A   Overcast
8:16 AM 35.6 °F 28.0 °F 32.0 °F 87% 29.55 in 10.0 mi ESE 10.4 mph 16.1 mph N/A   Overcast
8:36 AM 35.6 °F 28.6 °F 32.0 °F 87% 29.56 in 10.0 mi SE 9.2 mph - N/A   Mostly Cloudy
8:56 AM 35.6 °F 28.6 °F 33.8 °F 93% 29.56 in 10.0 mi SE 9.2 mph - N/A   Overcast
9:16 AM 37.4 °F 29.8 °F 33.8 °F 87% 29.56 in 10.0 mi SE 11.5 mph 19.6 mph N/A   Mostly Cloudy
9:36 AM 37.4 °F 28.5 °F 33.8 °F 87% 29.55 in 10.0 mi SE 15.0 mph 20.7 mph N/A   Scattered Clouds
9:56 AM 37.4 °F 29.3 °F 33.8 °F 87% 29.55 in 10.0 mi SE 12.7 mph 21.9 mph N/A   Mostly Cloudy
10:16 AM 37.4 °F 28.9 °F 33.8 °F 87% 29.55 in 10.0 mi SE 13.8 mph 21.9 mph N/A   Overcast
10:36 AM 37.4 °F 29.8 °F 33.8 °F 87% 29.56 in 10.0 mi SSE 11.5 mph 18.4 mph N/A   Overcast
10:56 AM 37.4 °F 29.3 °F 33.8 °F 87% 29.55 in 10.0 mi SSE 12.7 mph 19.6 mph 0.01 in   Overcast
11:16 AM 37.4 °F 28.5 °F 33.8 °F 87% 29.55 in 10.0 mi SE 15.0 mph 21.9 mph N/A   Overcast
11:36 AM 37.4 °F 29.8 °F 33.8 °F 87% 29.55 in 9.0 mi SSE 11.5 mph - 0.01 in   Overcast
11:56 AM 37.4 °F 29.3 °F 33.8 °F 87% 29.55 in 10.0 mi SE 12.7 mph 18.4 mph 0.02 in   Overcast
12:16 PM 37.4 °F 28.5 °F 33.8 °F 87% 29.55 in 10.0 mi SE 15.0 mph 20.7 mph 0.01 in   Overcast
12:36 PM 37.4 °F 28.5 °F 33.8 °F 87% 29.54 in 10.0 mi SE 15.0 mph 21.9 mph 0.01 in   Mostly Cloudy
12:56 PM 37.4 °F 27.8 °F 33.8 °F 87% 29.54 in 10.0 mi SE 17.3 mph 20.7 mph 0.01 in   Overcast
1:16 PM 37.4 °F 28.9 °F 32.0 °F 81% 29.53 in 10.0 mi SE 13.8 mph 23.0 mph N/A   Mostly Cloudy
1:36 PM 37.4 °F 29.3 °F 33.8 °F 87% 29.52 in 10.0 mi SE 12.7 mph 18.4 mph N/A   Mostly Cloudy
1:56 PM 37.4 °F 29.3 °F 33.8 °F 87% 29.52 in 10.0 mi SE 12.7 mph 18.4 mph N/A   Mostly Cloudy
2:16 PM 37.4 °F 28.9 °F 32.0 °F 81% 29.51 in 10.0 mi SE 13.8 mph 23.0 mph N/A   Mostly Cloudy
2:36 PM 37.4 °F 28.9 °F 33.8 °F 87% 29.51 in 10.0 mi SSE 13.8 mph - N/A   Mostly Cloudy
2:56 PM 35.6 °F 27.1 °F 32.0 °F 87% 29.51 in 8.0 mi SSE 12.7 mph 17.3 mph 0.03 in   Overcast
3:16 PM 35.6 °F 28.0 °F 30.2 °F 81% 29.50 in 10.0 mi SE 10.4 mph - 0.01 in   Overcast
3:36 PM 35.6 °F 29.2 °F 32.0 °F 87% 29.49 in 10.0 mi ESE 8.1 mph - 0.01 in   Mostly Cloudy
3:56 PM 35.6 °F 27.5 °F 32.0 °F 87% 29.48 in 10.0 mi SE 11.5 mph 17.3 mph 0.01 in   Mostly Cloudy
4:16 PM 35.6 °F 27.1 °F 32.0 °F 87% 29.47 in 10.0 mi ESE 12.7 mph 17.3 mph N/A   Mostly Cloudy
4:36 PM 35.6 °F 28.0 °F 32.0 °F 87% 29.47 in 9.0 mi ESE 10.4 mph 18.4 mph N/A   Overcast
4:56 PM 35.6 °F 26.2 °F 30.2 °F 81% 29.46 in 10.0 mi SE 15.0 mph 26.5 mph N/A   Overcast
5:16 PM 35.6 °F 26.2 °F 30.2 °F 81% 29.45 in 9.0 mi SE 15.0 mph 24.2 mph N/A   Overcast
5:36 PM 35.6 °F 27.1 °F 30.2 °F 81% 29.44 in 9.0 mi SE 12.7 mph 21.9 mph 0.01 in   Overcast
5:56 PM 33.8 °F 25.3 °F 30.2 °F 87% 29.43 in 10.0 mi SE 11.5 mph 19.6 mph 0.01 in   Overcast
6:16 PM 33.8 °F 25.3 °F 30.2 °F 87% 29.42 in 10.0 mi ESE 11.5 mph 17.3 mph N/A   Overcast
6:36 PM 33.8 °F 24.3 °F 30.2 °F 87% 29.41 in 10.0 mi ESE 13.8 mph 18.4 mph N/A   Overcast
6:56 PM 33.8 °F 24.8 °F 30.2 °F 87% 29.40 in 9.0 mi ESE 12.7 mph 21.9 mph 0.01 in   Overcast
7:16 PM 33.8 °F 24.8 °F 30.2 °F 87% 29.39 in 10.0 mi ESE 12.7 mph 20.7 mph N/A   Overcast
7:36 PM 33.8 °F 24.3 °F 30.2 °F 87% 29.38 in 7.0 mi ESE 13.8 mph 19.6 mph 0.01 in   Overcast
7:56 PM 33.8 °F 25.3 °F 30.2 °F 87% 29.37 in 7.0 mi East 11.5 mph 20.7 mph 0.01 in   Overcast
8:16 PM 33.8 °F 24.8 °F 30.2 °F 87% 29.36 in 6.0 mi ESE 12.7 mph 19.6 mph 0.01 in   Overcast
8:36 PM 33.8 °F 24.8 °F 30.2 °F 87% 29.36 in 9.0 mi ESE 12.7 mph 18.4 mph 0.02 in   Overcast
8:56 PM 33.8 °F 24.8 °F 30.2 °F 87% 29.36 in 10.0 mi East 12.7 mph 18.4 mph 0.03 in   Overcast
9:16 PM 33.8 °F 24.3 °F 30.2 °F 87% 29.35 in 9.0 mi ESE 13.8 mph 17.3 mph N/A   Mostly Cloudy
9:36 PM 35.6 °F 27.1 °F 30.2 °F 81% 29.35 in 10.0 mi ESE 12.7 mph 23.0 mph N/A   Overcast
9:56 PM 35.6 °F 27.1 °F 30.2 °F 81% 29.35 in 10.0 mi ESE 12.7 mph 18.4 mph 0.01 in   Overcast
10:16 PM 35.6 °F 26.6 °F 30.2 °F 81% 29.34 in 10.0 mi ESE 13.8 mph 19.6 mph N/A   Overcast
10:36 PM 35.6 °F 28.0 °F 30.2 °F 81% 29.34 in 10.0 mi ESE 10.4 mph 20.7 mph N/A   Overcast
10:56 PM 35.6 °F 26.6 °F 30.2 °F 81% 29.34 in 10.0 mi ESE 13.8 mph 19.6 mph N/A   Overcast
11:16 PM 35.6 °F 26.6 °F 30.2 °F 81% 29.34 in 10.0 mi ESE 13.8 mph 19.6 mph N/A   Overcast
11:36 PM 35.6 °F 26.6 °F 30.2 °F 81% 29.34 in 10.0 mi ESE 13.8 mph 21.9 mph 0.01 in   Overcast
11:56 PM 35.6 °F 27.1 °F 30.2 °F 81% 29.34 in 10.0 mi ESE 12.7 mph 18.4 mph 0.01 in   Overcast